GW1515 Weather Reports


Display with metric or nautical units.
time (UTC)temp
F
wind
direction
speed
MPH
gust
MPH
rain 1hr
in
rain 24hr
in
rain mn
in
humidity
%
barometer
mb
20260503200901 65 200 6.0 17.0 0.00 0.12 0.12 46 1009.0
20260503200356 64 200 24.0 33.0 0.00 0.12 0.12 44 1009.0
20260503195854 64 198 23.0 37.0 0.00 0.12 0.12 44 1008.8
20260503195350 64 206 14.0 34.0 0.00 0.12 0.12 44 1009.0
20260503194848 64 193 14.0 35.0 0.00 0.12 0.12 43 1009.1
20260503194343 64 203 7.0 30.0 0.00 0.12 0.12 45 1009.0
20260503193840 64 225 5.0 22.0 0.00 0.12 0.12 46 1009.1
20260503193336 64 176 15.0 20.0 0.00 0.12 0.12 48 1009.2
20260503192832 63 176 8.0 15.0 0.00 0.12 0.12 49 1009.1
20260503192327 62 205 9.0 29.0 0.00 0.12 0.12 50 1009.4
20260503191824 63 211 14.0 19.0 0.00 0.12 0.12 50 1009.5
20260503191321 62 208 16.0 27.0 0.00 0.12 0.12 51 1009.7
20260503190817 62 205 18.0 22.0 0.00 0.12 0.12 52 1009.8
20260503190314 61 178 5.0 27.0 0.00 0.12 0.12 57 1009.9
20260503185812 61 179 9.0 21.0 0.00 0.12 0.12 54 1010.0
20260503185307 60 231 5.0 15.0 0.00 0.12 0.12 63 1010.1
20260503184802 60 197 8.0 17.0 0.00 0.12 0.12 61 1010.4
20260503184259 59 161 9.0 15.0 0.00 0.12 0.12 65 1010.3
20260503183754 59 175 10.0 13.0 0.00 0.12 0.12 65 1010.5
20260503183252 57 164 13.0 17.0 0.00 0.12 0.12 67 1010.3
20260503182749 56 189 4.0 15.0 0.00 0.12 0.12 70 1010.7
20260503182248 55 179 8.0 17.0 0.00 0.12 0.12 70 1010.3
20260503181745 55 180 4.0 11.0 0.00 0.12 0.12 75 1010.8
20260503181242 53 138 5.0 13.0 0.00 0.12 0.12 76 1011.0
20260503180738 52 174 5.0 9.0 0.00 0.12 0.12 77 1011.5
20260503180236 51 162 2.0 11.0 0.00 0.12 0.12 79 1011.2
20260503175732 50 162 5.0 10.0 0.00 0.12 0.12 81 1011.6
20260503175231 50 150 6.0 11.0 0.00 0.12 0.12 81 1011.6
20260503174726 50 149 5.0 10.0 0.05 0.12 0.12 81 1011.9
20260503174224 50 122 5.0 8.0 0.09 0.12 0.12 82 1012.3
20260503173719 49 182 4.0 9.0 0.07 0.11 0.11 85 1012.7
20260503173215 49 203 3.0 7.0 0.05 0.10 0.10 84 1013.0
20260503172712 49 206 14.0 14.0 0.00 0.09 0.09 87 1013.3
20260503172209 49 220 3.0 9.0 0.02 0.09 0.09 86 1013.1
20260503171705 49 153 4.0 9.0 0.02 0.09 0.09 88 1013.5
20260503171203 49 232 7.0 9.0 0.02 0.09 0.09 89 1013.5
20260503170700 49 187 4.0 8.0 0.00 0.09 0.09 88 1013.5
20260503170157 49 209 6.0 7.0 0.02 0.09 0.09 89 1013.4
20260503160118 48 169 8.0 11.0 0.14 0.04 0.04 87 1014.6
20260503150548 53 239 10.0 16.0 0.00 0.00 0.00 61 1014.2
20260503130938 49 244 9.0 19.0 0.00 0.00 0.00 63 1014.9
20260503130436 49 211 9.0 13.0 0.00 0.00 0.00 64 1014.8
20260503110823 46 215 9.0 15.0 0.00 0.00 0.00 64 1014.6
20260503110320 46 208 5.0 16.0 0.00 0.00 0.00 64 1014.6
20260503100246 44 248 3.0 11.0 0.00 0.00 0.00 66 1014.7
20260503090206 44 217 6.0 9.0 0.00 0.00 0.00 65 1015.0
20260503081138 44 194 4.0 10.0 0.00 0.00 0.00 63 1015.2
20260503080634 44 208 3.0 9.0 0.00 0.00 0.00 64 1015.1
20260503080131 44 245 4.0 10.0 0.00 0.00 0.00 63 1015.3
20260503072608 44 214 4.0 7.0 0.00 0.00 0.00 62 1015.2
20260503072105 44 204 7.0 9.0 0.00 0.00 0.00 62 1015.3
20260503071602 44 205 4.0 9.0 0.00 0.00 0.00 62 1015.2
20260503071059 44 193 5.0 9.0 0.00 0.00 0.00 62 1015.5
20260503070555 44 210 3.0 9.0 0.00 0.00 0.00 62 1015.4
20260503055015 45 192 4.0 11.0 0.00 0.00 0.00 60 1016.0
20260503054511 45 213 6.0 10.0 0.00 0.00 0.00 60 1016.2
20260503054008 45 218 3.0 7.0 0.00 0.00 0.00 60 1016.0
20260503053506 45 225 3.0 6.0 0.00 0.00 0.00 60 1016.1
20260503053004 45 209 4.0 9.0 0.00 0.00 0.00 60 1016.3
20260503052500 45 220 3.0 8.0 0.00 0.00 0.00 60 1016.2
20260503051956 45 238 4.0 8.0 0.00 0.00 0.00 60 1016.4
20260503051452 45 200 3.0 6.0 0.00 0.00 0.00 60 1016.2
20260503050950 45 204 8.0 11.0 0.00 0.00 0.00 60 1016.3
20260503050445 45 219 2.0 8.0 0.00 0.00 0.00 61 1016.3
20260503045943 45 215 2.0 6.0 0.00 0.00 0.00 61 1016.4
20260503045441 45 216 3.0 7.0 0.00 0.00 0.00 61 1016.2
20260503044937 45 202 4.0 6.0 0.00 0.00 0.00 61 1016.5
20260503044434 45 188 2.0 5.0 0.00 0.00 0.00 61 1016.5
20260503043932 45 218 3.0 6.0 0.00 0.00 0.00 61 1016.4
20260503043428 45 202 4.0 5.0 0.00 0.00 0.00 60 1016.5
20260503042924 46 179 3.0 6.0 0.00 0.00 0.00 59 1016.4
20260503042421 46 183 1.0 5.0 0.00 0.00 0.00 59 1016.8
20260503041918 46 199 4.0 5.0 0.00 0.00 0.00 58 1016.6
20260503041415 46 201 4.0 5.0 0.00 0.00 0.00 59 1016.5
20260503040912 46 190 3.0 6.0 0.00 0.00 0.00 58 1016.6
20260503040409 46 216 3.0 4.0 0.00 0.00 0.00 58 1016.5
20260503035906 46 218 4.0 6.0 0.00 0.00 0.00 58 1016.5
20260503035403 46 172 2.0 7.0 0.00 0.00 0.00 58 1016.6
20260503034900 46 210 3.0 5.0 0.00 0.00 0.00 58 1016.6
20260503034358 46 204 3.0 5.0 0.00 0.00 0.00 58 1016.5
20260503033855 46 208 3.0 5.0 0.00 0.00 0.00 58 1016.7
20260503033352 46 201 2.0 6.0 0.00 0.00 0.00 58 1016.6
20260503032850 46 193 3.0 5.0 0.00 0.00 0.00 57 1016.7
20260503032349 46 203 3.0 5.0 0.00 0.00 0.00 57 1016.6
20260503031846 46 165 2.0 4.0 0.00 0.00 0.00 57 1016.6
20260503031344 46 162 2.0 5.0 0.00 0.00 0.00 57 1016.6
20260503030840 47 191 3.0 4.0 0.00 0.00 0.00 56 1016.6
20260503030336 47 198 2.0 4.0 0.00 0.00 0.00 55 1016.8
20260503025833 47 187 2.0 5.0 0.00 0.00 0.00 56 1016.7
20260503025330 47 193 1.0 3.0 0.00 0.00 0.00 55 1016.6
20260503024827 47 199 2.0 4.0 0.00 0.00 0.00 55 1016.9
20260503024324 47 205 2.0 4.0 0.00 0.00 0.00 54 1016.9
20260503023821 47 199 2.0 3.0 0.00 0.00 0.00 54 1016.7
20260503023318 47 185 2.0 3.0 0.00 0.00 0.00 54 1016.8
20260503022814 47 202 2.0 3.0 0.00 0.00 0.00 53 1016.8
20260503022309 48 124 2.0 4.0 0.00 0.00 0.00 52 1016.8
20260503021805 48 167 1.0 4.0 0.00 0.00 0.00 53 1016.9
20260503021302 48 118 0.0 3.0 0.00 0.00 0.00 52 1016.6
20260503020759 49 195 2.0 4.0 0.00 0.00 0.00 52 1016.7
20260503020257 49 197 1.0 5.0 0.00 0.00 0.00 51 1016.9
20260503015753 49 191 2.0 5.0 0.00 0.00 0.00 51 1016.6
20260503015250 49 201 2.0 4.0 0.00 0.00 0.00 50 1016.8
20260503014745 49 224 0.0 3.0 0.00 0.00 0.00 50 1016.7
20260503014244 49 230 0.0 4.0 0.00 0.00 0.00 50 1016.6
20260503013741 49 210 3.0 4.0 0.00 0.00 0.00 50 1016.7
20260503013238 50 196 0.0 3.0 0.00 0.00 0.00 50 1016.7
20260503012735 50 193 3.0 4.0 0.00 0.00 0.00 49 1016.5
20260503012233 50 223 3.0 5.0 0.00 0.00 0.00 48 1016.4
20260503011729 50 193 2.0 3.0 0.00 0.00 0.00 48 1016.5
20260503011226 50 162 0.0 3.0 0.00 0.00 0.00 49 1016.4
20260503010722 50 235 1.0 2.0 0.00 0.00 0.00 49 1016.4
20260503010219 50 202 0.0 3.0 0.00 0.00 0.00 49 1016.4
20260503005717 51 170 1.0 2.0 0.00 0.00 0.00 48 1016.5
20260503005214 52 230 2.0 4.0 0.00 0.00 0.00 47 1016.5
20260503004710 52 212 2.0 7.0 0.00 0.00 0.00 45 1016.6
20260503004209 52 256 1.0 5.0 0.00 0.00 0.00 46 1016.5
20260503003706 53 241 2.0 4.0 0.00 0.00 0.00 45 1016.5
20260503003203 53 238 3.0 7.0 0.00 0.00 0.00 43 1016.4
20260503002659 54 237 3.0 9.0 0.00 0.00 0.00 42 1016.5
20260503002156 54 216 3.0 6.0 0.00 0.00 0.00 42 1016.5
20260503001651 54 220 1.0 8.0 0.00 0.00 0.00 42 1016.5
20260503001149 54 234 2.0 5.0 0.00 0.00 0.00 42 1016.6
20260503000647 55 246 2.0 3.0 0.00 0.00 0.00 41 1016.6
20260503000143 56 224 2.0 4.0 0.00 0.00 0.00 39 1016.4
20260502235640 55 264 3.0 4.0 0.00 0.00 0.00 40 1016.4
20260502235138 54 264 2.0 6.0 0.00 0.00 0.00 41 1016.7
20260502234634 54 192 0.0 7.0 0.00 0.00 0.00 42 1016.6
20260502234131 55 225 2.0 9.0 0.00 0.00 0.00 41 1016.6
20260502233627 55 242 5.0 11.0 0.00 0.00 0.00 39 1016.6
20260502233124 55 245 5.0 5.0 0.00 0.00 0.00 40 1016.6
20260502232620 55 184 3.0 8.0 0.00 0.00 0.00 41 1016.7
20260502232118 55 207 1.0 3.0 0.00 0.00 0.00 41 1016.9
20260502231614 55 187 1.0 6.0 0.00 0.00 0.00 41 1016.6
20260502231112 54 215 3.0 4.0 0.00 0.00 0.00 43 1016.8
20260502230610 54 255 5.0 7.0 0.00 0.00 0.00 42 1017.0
20260502230109 54 233 7.0 11.0 0.00 0.00 0.00 41 1017.1
20260502225604 54 253 1.0 7.0 0.00 0.00 0.00 42 1016.8
20260502225101 55 246 3.0 7.0 0.00 0.00 0.00 40 1017.0
20260502224557 57 234 5.0 8.0 0.00 0.00 0.00 39 1016.8
20260502224054 57 193 3.0 6.0 0.00 0.00 0.00 40 1017.0
20260502223552 56 242 3.0 8.0 0.00 0.00 0.00 39 1017.0
20260502223050 55 241 4.0 10.0 0.00 0.00 0.00 42 1017.0
20260502222547 55 222 3.0 9.0 0.00 0.00 0.00 41 1016.9
20260502222043 57 277 5.0 7.0 0.00 0.00 0.00 38 1017.1
20260502221539 56 242 8.0 14.0 0.00 0.00 0.00 38 1017.2
20260502221037 56 244 4.0 16.0 0.00 0.00 0.00 39 1017.1
20260502220532 58 36 0.0 7.0 0.00 0.00 0.00 40 1016.9
20260502220029 58 206 3.0 5.0 0.00 0.00 0.00 39 1016.8
20260502215526 57 280 2.0 5.0 0.00 0.00 0.00 41 1017.1
20260502215023 55 292 3.0 6.0 0.00 0.00 0.00 39 1017.1
20260502214520 55 6 1.0 7.0 0.00 0.00 0.00 42 1017.1
20260502214018 54 263 1.0 5.0 0.00 0.00 0.00 43 1017.0
20260502213514 54 233 3.0 4.0 0.00 0.00 0.00 45 1017.4
20260502213012 53 0 0.0 6.0 0.00 0.00 0.00 43 1017.2
20260502212511 54 18 3.0 10.0 0.00 0.00 0.00 43 1017.5
20260502212008 55 268 1.0 4.0 0.00 0.00 0.00 44 1017.2
20260502211503 54 277 2.0 3.0 0.00 0.00 0.00 43 1017.1
20260502211001 53 336 3.0 7.0 0.00 0.00 0.00 44 1017.5
20260502210457 53 250 3.0 6.0 0.00 0.00 0.00 45 1017.4
20260502205955 52 252 3.0 6.0 0.00 0.00 0.00 46 1017.6
20260502205451 53 344 5.0 7.0 0.00 0.00 0.00 44 1017.5
20260502204948 53 349 7.0 8.0 0.00 0.00 0.00 43 1017.6
20260502204445 52 347 4.0 10.0 0.00 0.00 0.00 44 1017.8
20260502203943 53 42 1.0 4.0 0.00 0.00 0.00 45 1017.5
20260502203440 52 14 5.0 7.0 0.00 0.00 0.00 42 1017.6
20260502202936 53 340 4.0 7.0 0.00 0.00 0.00 43 1017.8
20260502202433 53 300 6.0 8.0 0.00 0.00 0.00 42 1017.9
20260502201931 53 224 2.0 8.0 0.00 0.00 0.00 43 1017.9
20260502201427 53 304 5.0 11.0 0.00 0.00 0.00 40 1018.0